[[[{"header":{"parameterUnit":"kt","parameterCategory":2,"dx":1,"dy":1,"la1":30.253999710083008,"la2":30.299108505249023,"lo1":-89.0895004272461,"lo2":-89.04439544677734,"nx":28,"ny":28,"refTime":"2022-10-14T21:00:00:Z","depth":"0","parameterNumber":2,"parameterNumberName":"U-component_of_CURRENTS"},"data":[0.4452,0.449,0.4583,0.4489,0.451,0.4384,0.4357,0.4379,0.4566,0.4888,0.528,0.5696,0.6474,0.7277,0.7419,0.7309,0.6804,0.6542,0.6463,0.7187,0.7227,0.7265,0.7002,0.6882,0.6881,0.5316,0.5306,0.5297,0.4547,0.4625,0.4748,0.4807,0.4776,0.4886,0.493,0.4881,0.4936,0.5298,0.5509,0.6219,0.6731,0.7244,0.777,0.766,0.7282,0.7526,0.6979,0.683,0.7708,0.7452,0.7426,0.7426,0.7427,0.7427,0.7427,0.7427,0.4659,0.4748,0.4821,0.4951,0.5008,0.5025,0.5054,0.5138,0.5301,0.5493,0.5814,0.6125,0.6808,0.7636,0.781,0.8022,0.7893,0.8009,0.7965,0.762,0.7171,0.7827,0.8205,0.8207,0.821,0.8212,0.8213,0,0.4651,0.4752,0.4813,0.4955,0.5035,0.5133,0.5236,0.5344,0.552,0.5749,0.5968,0.6221,0.6876,0.7285,0.7914,0.8197,0.8032,0.8418,0.8324,0.7761,0.7141,0.6822,0.7593,0.8213,0.8216,0.8218,0.8219,0.822,0.458,0.4667,0.4834,0.4871,0.49,0.5084,0.5169,0.5367,0.5473,0.5845,0.596,0.6433,0.6717,0.7485,0.7863,0.8405,0.8179,0.8471,0.828,0.7987,0.7812,0.7381,0.7138,0.825,0.8246,0.8243,0.8241,0,0.4534,0.4507,0.4636,0.4737,0.4791,0.4963,0.5123,0.5287,0.5524,0.5815,0.5937,0.63,0.6744,0.7141,0.7751,0.7892,0.8134,0.8433,0.8031,0.7932,0.7815,0.7684,0.7879,0.7649,0.8726,0.8726,0.8726,0,0.4367,0.4442,0.4441,0.4487,0.4715,0.4711,0.501,0.5174,0.5441,0.5681,0.5939,0.6197,0.6632,0.7007,0.7272,0.7701,0.7896,0.7882,0.7835,0.7574,0.7518,0.7476,0.7332,0.8198,0.8194,0.819,0.8186,0,0.4243,0.4235,0.4342,0.4346,0.4406,0.4553,0.4636,0.4933,0.5107,0.5512,0.567,0.6219,0.6424,0.6852,0.7076,0.6946,0.7704,0.7523,0.762,0.7597,0.7537,0.7481,0.7968,0.8181,0.8179,0.8178,0.8176,0,0.4052,0.405,0.4122,0.423,0.4258,0.4301,0.4628,0.471,0.5072,0.5195,0.5574,0.5697,0.6207,0.605,0.6732,0.6445,0.6661,0.6785,0.6805,0.6666,0.6299,0.655,0.7019,0.6869,0.6788,0.6778,0.6768,0,0.3986,0.3983,0.3939,0.4008,0.4036,0.4064,0.4192,0.436,0.4485,0.4734,0.5041,0.5293,0.5281,0.5418,0.5738,0.5914,0.627,0.5878,0.6308,0.6324,0.6138,0.6612,0.6384,0.6854,0.6631,0.6645,0.6656,0,0.3941,0.3854,0.3864,0.3901,0.385,0.3864,0.3963,0.4141,0.4341,0.4372,0.47,0.4965,0.5087,0.5206,0.5266,0.5545,0.602,0.5413,0.5423,0.5636,0.6628,0.6433,0.6506,0.5957,0.5975,0.599,0.6547,0,0.3882,0.386,0.384,0.3809,0.3796,0.3787,0.3792,0.383,0.3859,0.3944,0.4258,0.4324,0.458,0.46,0.46,0.5095,0.5001,0.4896,0.4841,0.5127,0.5304,0.5391,0.4312,0.4308,0.4305,0.4302,0,0,0.3899,0.3874,0.3803,0.3766,0.3781,0.3711,0.3727,0.3719,0.3675,0.3825,0.3696,0.4008,0.4028,0.4425,0.4512,0.441,0.4517,0.4425,0.4906,0.4972,0.5035,0.5225,0.5311,0.4297,0.4295,0.4294,0.4293,0,0.3897,0.3851,0.3827,0.3779,0.372,0.3696,0.3691,0.3621,0.3662,0.3658,0.3743,0.3919,0.3852,0.4072,0.4154,0.4327,0.4364,0.4272,0.4561,0.4863,0.4933,0.4997,0.5196,0.5276,0.4285,0.4286,0.4286,0,0.391,0.3871,0.3855,0.3769,0.3728,0.3697,0.3675,0.3627,0.3665,0.3612,0.3648,0.3694,0.3765,0.387,0.3909,0.3854,0.4243,0.3982,0.4,0.4157,0.4471,0.4548,0.4616,0.3751,0.375,0.3748,0,0,0.3912,0.388,0.3811,0.3766,0.374,0.3686,0.3651,0.3639,0.3617,0.3613,0.3597,0.3641,0.3738,0.3754,0.3778,0.3813,0.3955,0.3921,0.3946,0.3967,0.4131,0.4449,0.4522,0.3743,0.3743,0.3743,0,0,0.3918,0.3859,0.3853,0.3793,0.3737,0.3663,0.3632,0.362,0.3603,0.3632,0.3623,0.3623,0.3712,0.367,0.3601,0.3808,0.3702,0.3711,0.3841,0.387,0.3895,0.4101,0.3586,0,0,0,0,0,0.3905,0.3864,0.3858,0.3843,0.3739,0.3657,0.364,0.3622,0.3649,0.3621,0.3645,0.3629,0.3679,0.3615,0.3601,0.374,0.3673,0.3686,0.3697,0.3872,0.3905,0.3933,0,0,0,0,0,0,0.3898,0.388,0.3859,0.3787,0.3763,0.3659,0.3689,0.3681,0.3653,0.3658,0.3626,0.3627,0.3619,0.3619,0.3607,0.3743,0.359,0.3678,0.3689,0.3698,0.3884,0.391,0.3934,0,0,0,0,0,0.3893,0.3878,0.3729,0.3786,0.3765,0.3723,0.3693,0.3686,0.3665,0.3636,0.3636,0.3661,0.3616,0.3609,0.3612,0.3752,0.3598,0.3594,0.3685,0.3693,0.3701,0.3897,0,0,0,0,0,0,0.3889,0.3853,0.3723,0.3714,0.3827,0.3729,0.3717,0.3691,0.3646,0.3643,0.3671,0.3676,0.3613,0.3608,0.3603,0.3763,0.3604,0.36,0.3597,0.3691,0.3698,0.3703,0,0,0,0,0,0,0.3862,0.3847,0.3718,0.3772,0.3769,0.3734,0.3724,0.3668,0.3648,0.3683,0.3685,0.3674,0.3653,0.3607,0.3603,0.3512,0.3609,0.3605,0.3602,0.36,0.3697,0.3702,0,0,0,0,0,0,0.3854,0.3841,0.3774,0.3771,0.3769,0.3666,0.3686,0.3599,0.3643,0.3686,0.3653,0.3657,0.3654,0.3647,0.3603,0.3513,0.3512,0.3609,0.3606,0.3604,0.3603,0,0,0,0,0,0,0,0.3848,0.3952,0.3781,0.3771,0.3769,0.3635,0.3632,0.3629,0.3644,0.3648,0.3652,0.3655,0.3633,0.3628,0.3624,0.3514,0,0,0.3609,0.3607,0,0,0,0,0,0,0,0,0.3956,0.3953,0.3781,0.3779,0.3778,0.3635,0.3632,0.363,0.3644,0.3648,0.3651,0.3654,0.3631,0.3628,0.3624,0,0,0,0,0,0,0,0,0,0,0,0,0,0,0,0.378,0.3779,0,0.3635,0.3633,0.3631,0.3645,0.3648,0.365,0.3653,0.363,0.3627,0.3624,0,0,0,0,0,0,0,0,0,0,0,0,0,0,0,0,0,0,0,0,0,0,0,0,0,0,0,0,0,0,0,0,0,0,0,0,0,0,0,0,0,0,0,0,0,0,0,0,0,0,0,0,0,0,0,0,0,0,0,0,0,0,0,0,0,0,0,0,0]}],[{"header":{"parameterUnit":"kt","parameterCategory":2,"dx":1,"dy":1,"la1":30.253999710083008,"la2":30.299108505249023,"lo1":-89.0895004272461,"lo2":-89.04439544677734,"nx":28,"ny":28,"refTime":"2022-10-14T21:00:00:Z","depth":"0","parameterNumber":3,"parameterNumberName":"V-component_of_CURRENTS"},"data":[0.133,0.152,0.1613,0.21,0.2335,0.2802,0.3098,0.349,0.3909,0.4462,0.4775,0.5051,0.4457,0.171,-0.0303,-0.0802,-0.1471,-0.1505,-0.1824,-0.1131,-0.1034,-0.0941,-0.1064,-0.1881,-0.1884,-0.2923,-0.2934,-0.2943,0.1226,0.1321,0.1557,0.1843,0.2176,0.2304,0.2861,0.3184,0.3669,0.4188,0.4529,0.4561,0.3634,0.2757,0.1312,0.0423,0.0106,-0.0056,-0.0274,-0.042,0.0747,0.0683,0.0224,0.0225,0.0225,0.0226,0.0226,0.0227,0.1034,0.1143,0.1243,0.1509,0.1798,0.2198,0.2545,0.2946,0.3491,0.4122,0.4265,0.4616,0.4085,0.3357,0.2704,0.1542,0.1692,0.1175,0.0963,0.0928,0.0625,0.1795,0.1753,0.1754,0.1755,0.1756,0.1757,0,0.0858,0.0872,0.0987,0.1222,0.1484,0.186,0.2302,0.2628,0.3212,0.3635,0.4105,0.4314,0.4124,0.3738,0.3138,0.2747,0.1977,0.2247,0.1723,0.1193,0.0914,0.0519,0.1823,0.2048,0.2051,0.2053,0.2055,0.2056,0.0646,0.0705,0.0873,0.1007,0.1085,0.1478,0.1819,0.2288,0.2701,0.3407,0.3689,0.3916,0.4132,0.3798,0.3311,0.2853,0.2397,0.2337,0.2234,0.1577,0.1172,0.1044,0.0811,0.209,0.2086,0.2082,0.2079,0,0.0554,0.05,0.0674,0.0872,0.098,0.1266,0.1778,0.2216,0.2649,0.3262,0.343,0.3799,0.3817,0.3635,0.3426,0.309,0.2545,0.2645,0.2422,0.2249,0.1476,0.1219,0.1152,0.0882,0.2351,0.2348,0.2345,0,0.0365,0.0497,0.0486,0.0558,0.0931,0.1055,0.1607,0.1936,0.2465,0.2955,0.3181,0.3531,0.3452,0.3442,0.3115,0.2835,0.3014,0.2476,0.2317,0.2204,0.2162,0.1676,0.1398,0.2724,0.2725,0.2726,0.2727,0,0.0215,0.0279,0.0399,0.044,0.0656,0.0891,0.1121,0.1633,0.1993,0.255,0.282,0.3181,0.3295,0.3218,0.2881,0.2775,0.2828,0.2624,0.2267,0.2236,0.2134,0.208,0.1966,0.2728,0.2728,0.2729,0.2729,0,0.0033,0.0038,0.014,0.0402,0.0463,0.0588,0.1151,0.1375,0.1903,0.209,0.2468,0.2542,0.2866,0.2545,0.2656,0.2557,0.2316,0.2159,0.2148,0.198,0.1565,0.1412,0.1696,0.1162,0.1741,0.1736,0.1732,0,-0.0047,-0.0041,-0.0069,0.0097,0.0152,0.0266,0.0537,0.0804,0.1016,0.1387,0.1591,0.1886,0.1698,0.1829,0.1952,0.1859,0.1934,0.1817,0.1644,0.164,0.1501,0.1829,0.1722,0.1626,0.1669,0.1676,0.1681,0,-0.0122,-0.0216,-0.0202,-0.0125,-0.0124,-0.0063,0.0151,0.0435,0.0758,0.0755,0.1195,0.1349,0.1412,0.1515,0.1504,0.1616,0.1787,0.1355,0.1353,0.1318,0.1908,0.1743,0.1766,0.1714,0.1726,0.1736,0.1631,0,-0.0218,-0.0224,-0.0242,-0.0238,-0.021,-0.0192,-0.0126,-0.0021,0.0029,0.0154,0.049,0.0486,0.0749,0.0726,0.0684,0.109,0.0885,0.0793,0.0728,0.0981,0.0863,0.0903,0.0344,0.0339,0.0334,0.033,0,0,-0.0215,-0.0244,-0.0328,-0.0348,-0.0301,-0.0365,-0.0308,-0.026,-0.0263,-0.0071,-0.0246,0.0072,0.0044,0.048,0.0541,0.0427,0.0373,0.0486,0.0795,0.0847,0.0895,0.0805,0.0849,0.0322,0.032,0.0318,0.0317,0,-0.0245,-0.0291,-0.0317,-0.0338,-0.0392,-0.0381,-0.0389,-0.0427,-0.0355,-0.0305,-0.0257,-0.0121,-0.014,0.0061,0.0142,0.033,0.0235,0.0265,0.0619,0.0745,0.0803,0.0855,0.0778,0.0821,0.0305,0.0306,0.0306,0,-0.0245,-0.0293,-0.0305,-0.0373,-0.0397,-0.0384,-0.0432,-0.0468,-0.037,-0.046,-0.0351,-0.0349,-0.0291,-0.0161,-0.0122,-0.0174,0.0105,-0.0028,-0.0005,0.0151,0.028,0.0344,0.0401,-0.0318,-0.0319,-0.032,0,0,-0.0258,-0.0293,-0.0347,-0.0378,-0.0402,-0.0426,-0.0445,-0.0453,-0.0458,-0.0454,-0.0451,-0.0415,-0.0322,-0.0291,-0.0277,-0.02,-0.0197,-0.0093,-0.0064,-0.0039,0.0127,0.0263,0.0323,-0.0324,-0.0324,-0.0324,0,0,-0.0254,-0.032,-0.0321,-0.0372,-0.0401,-0.044,-0.0458,-0.046,-0.0451,-0.0441,-0.0439,-0.0438,-0.035,-0.0397,-0.0448,-0.0237,-0.0372,-0.0364,-0.0156,-0.0121,-0.0093,0.0119,-0.047,0,0,0,0,0,-0.0281,-0.0316,-0.0317,-0.0331,-0.0394,-0.0441,-0.0448,-0.0457,-0.0444,-0.0452,-0.0427,-0.0449,-0.0391,-0.0439,-0.0446,-0.0286,-0.0376,-0.0367,-0.0358,-0.0078,-0.004,-0.0008,0,0,0,0,0,0,-0.0287,-0.0303,-0.0317,-0.0359,-0.0374,-0.044,-0.0423,-0.0425,-0.0443,-0.044,-0.0449,-0.0449,-0.045,-0.0438,-0.0444,-0.0288,-0.0469,-0.0373,-0.0365,-0.0358,-0.0065,-0.0034,-0.0007,0,0,0,0,0,-0.0292,-0.0305,-0.0403,-0.0358,-0.0371,-0.0397,-0.0421,-0.0423,-0.0426,-0.0447,-0.0447,-0.0433,-0.0451,-0.0455,-0.0442,-0.0282,-0.0465,-0.0467,-0.0367,-0.0361,-0.0356,-0.005,0,0,0,0,0,0,-0.0295,-0.0294,-0.0406,-0.041,-0.0346,-0.0393,-0.04,-0.0421,-0.0431,-0.0433,-0.0432,-0.043,-0.0452,-0.0455,-0.0458,-0.0272,-0.0462,-0.0464,-0.0466,-0.0363,-0.0358,-0.0353,0,0,0,0,0,0,-0.0288,-0.0297,-0.0408,-0.0392,-0.0394,-0.0388,-0.0395,-0.0419,-0.043,-0.0413,-0.0413,-0.0431,-0.0448,-0.0455,-0.0457,-0.0494,-0.046,-0.0462,-0.0463,-0.0464,-0.0359,-0.0355,0,0,0,0,0,0,-0.0292,-0.03,-0.039,-0.0392,-0.0394,-0.0439,-0.0408,-0.0467,-0.0433,-0.0411,-0.0429,-0.0428,-0.0448,-0.045,-0.0457,-0.0493,-0.0494,-0.046,-0.0462,-0.0462,-0.0463,0,0,0,0,0,0,0,-0.0295,-0.0238,-0.0388,-0.0392,-0.0394,-0.0454,-0.0454,-0.0454,-0.0432,-0.0431,-0.043,-0.0428,-0.045,-0.0452,-0.0454,-0.0492,0,0,-0.046,-0.0461,0,0,0,0,0,0,0,0,-0.0235,-0.0238,-0.0388,-0.039,-0.0391,-0.0454,-0.0454,-0.0454,-0.0432,-0.0431,-0.043,-0.0429,-0.045,-0.0452,-0.0454,0,0,0,0,0,0,0,0,0,0,0,0,0,0,0,-0.0388,-0.039,0,-0.0454,-0.0454,-0.0454,-0.0432,-0.0431,-0.043,-0.0429,-0.0451,-0.0452,-0.0454,0,0,0,0,0,0,0,0,0,0,0,0,0,0,0,0,0,0,0,0,0,0,0,0,0,0,0,0,0,0,0,0,0,0,0,0,0,0,0,0,0,0,0,0,0,0,0,0,0,0,0,0,0,0,0,0,0,0,0,0,0,0,0,0,0,0,0,0,0]}]],[[{"header":{"parameterUnit":"kt","parameterCategory":2,"dx":1,"dy":1,"la1":30.253999710083008,"la2":30.299108505249023,"lo1":-89.0895004272461,"lo2":-89.04439544677734,"nx":28,"ny":28,"refTime":"2022-10-14T21:00:00:Z","depth":"2","parameterNumber":2,"parameterNumberName":"U-component_of_CURRENTS"},"data":[0.2812,0.2851,0.2907,0.3017,0.3152,0.3254,0.3341,0.3274,0.3333,0.312,0.3105,0.3299,0.355,0.311,0.3074,0.2927,0.3166,0.2805,0.3733,0.3874,0.3938,0.4124,0.3935,0,0,0,0,0,0.286,0.2938,0.3028,0.319,0.3282,0.3444,0.3643,0.363,0.3704,0.3845,0.388,0.3573,0.3532,0.3662,0.3518,0.3487,0.3501,0.3341,0.339,0.3469,0.3539,0.3359,0.2768,0.2764,0.276,0.2757,0,0,0.2969,0.3004,0.3138,0.3273,0.3423,0.3576,0.3663,0.3862,0.4041,0.422,0.4417,0.4412,0.4529,0.4334,0.4218,0.4185,0.4475,0.4319,0.435,0.4389,0.4248,0.4069,0.3895,0.3899,0.3903,0.3906,0.3909,0,0.3076,0.3148,0.3241,0.3397,0.3529,0.3692,0.3914,0.4042,0.4405,0.4575,0.4783,0.487,0.5031,0.4902,0.4891,0.4814,0.499,0.4813,0.5436,0.4716,0.4542,0.4507,0.4524,0.4489,0.4496,0.4502,0.4506,0.4509,0.3195,0.3241,0.3451,0.3525,0.3622,0.3806,0.3936,0.4256,0.4426,0.4839,0.494,0.5206,0.5286,0.5417,0.5408,0.537,0.55,0.5002,0.4898,0.5295,0.526,0.5249,0.5238,0.4592,0.4582,0.4573,0.4566,0,0.3255,0.3382,0.3492,0.3709,0.3785,0.3879,0.4167,0.4312,0.4597,0.4846,0.4955,0.5298,0.5452,0.5574,0.5749,0.5668,0.5681,0.5603,0.5201,0.5125,0.5288,0.5268,0.5387,0.5379,0.5372,0.5366,0.5362,0,0.3377,0.3452,0.364,0.3689,0.3828,0.3993,0.4178,0.435,0.4632,0.4813,0.5052,0.5219,0.547,0.5594,0.5607,0.5593,0.5784,0.5494,0.5468,0.5197,0.5144,0.5619,0.5593,0.5832,0.5831,0.5831,0.5831,0,0.3392,0.3571,0.3665,0.3726,0.3932,0.402,0.4147,0.4378,0.4525,0.4827,0.4969,0.5215,0.5375,0.5478,0.5536,0.5514,0.5719,0.5697,0.546,0.5438,0.5185,0.513,0.583,0.583,0.583,0.583,0.583,0,0.3469,0.3561,0.3676,0.3859,0.3904,0.399,0.4208,0.4331,0.4577,0.4703,0.4905,0.5014,0.5229,0.5179,0.5409,0.5351,0.5371,0.5404,0.5409,0.5158,0.5048,0.4785,0.4863,0.5361,0.5358,0.5355,0.5353,0,0.3462,0.3579,0.366,0.3786,0.3862,0.3979,0.4097,0.4239,0.4374,0.4544,0.4687,0.4865,0.4852,0.4955,0.5062,0.517,0.5239,0.5139,0.5258,0.526,0.4992,0.5139,0.4823,0.4838,0.5315,0.5319,0.5321,0,0.344,0.3594,0.3607,0.3678,0.3818,0.3871,0.4002,0.4149,0.4263,0.4376,0.4542,0.4709,0.4777,0.4847,0.4906,0.5004,0.5162,0.4983,0.4987,0.497,0.5373,0.5114,0.5113,0.5215,0.5221,0.5226,0.5291,0,0.3504,0.3571,0.3599,0.3707,0.3769,0.3838,0.3939,0.4019,0.409,0.417,0.4363,0.4449,0.46,0.4645,0.4659,0.4866,0.482,0.4825,0.4758,0.4903,0.4904,0.4928,0.4615,0.4613,0.4612,0.461,0,0,0.3471,0.3538,0.3585,0.3646,0.3704,0.3767,0.3833,0.3898,0.3997,0.4068,0.4056,0.4295,0.4342,0.4531,0.4589,0.4603,0.4633,0.4585,0.4823,0.4846,0.4868,0.4877,0.4902,0.4607,0.4607,0.4606,0.4606,0,0.3486,0.3534,0.3568,0.3626,0.3707,0.3752,0.3778,0.3854,0.3906,0.4008,0.4055,0.4169,0.427,0.4359,0.4414,0.4564,0.4554,0.4597,0.4679,0.4804,0.483,0.4852,0.4866,0.489,0.4602,0.4602,0.4602,0,0.3489,0.3537,0.3554,0.3633,0.3674,0.3736,0.3739,0.3797,0.3865,0.3869,0.3972,0.4035,0.4111,0.423,0.4285,0.4247,0.4467,0.439,0.4401,0.4411,0.4537,0.4567,0.4593,0.425,0.4249,0.4248,0,0,0.3503,0.3539,0.3606,0.3639,0.3669,0.3721,0.3749,0.3783,0.3838,0.3864,0.391,0.398,0.4071,0.4112,0.4178,0.427,0.4287,0.4347,0.4363,0.4377,0.4394,0.4523,0.4552,0.4243,0.4243,0.4242,0,0,0.35,0.3569,0.3594,0.3634,0.3688,0.3734,0.3758,0.3787,0.3847,0.386,0.3888,0.3902,0.4021,0.403,0.3964,0.4173,0.4107,0.412,0.4158,0.4178,0.4195,0.4198,0.3937,0,0,0,0,0,0.3542,0.3562,0.3584,0.3598,0.3671,0.3726,0.3736,0.3769,0.378,0.3806,0.3859,0.3848,0.4018,0.3958,0.397,0.4058,0.4181,0.4192,0.4202,0.4274,0.4296,0.4314,0,0,0,0,0,0,0.3548,0.3564,0.3583,0.3629,0.3646,0.3725,0.3722,0.3731,0.3778,0.3782,0.3839,0.3848,0.386,0.3952,0.3963,0.4048,0.3933,0.4185,0.4194,0.4203,0.4281,0.4299,0.4314,0,0,0,0,0,0.3552,0.3565,0.3676,0.3629,0.3643,0.3694,0.3721,0.3729,0.3771,0.3805,0.3815,0.3799,0.3859,0.3872,0.3958,0.4044,0.3926,0.393,0.4191,0.4198,0.4205,0.429,0,0,0,0,0,0,0.3556,0.3567,0.368,0.3685,0.3628,0.3691,0.3703,0.3728,0.3792,0.3803,0.3763,0.3765,0.3859,0.3868,0.3878,0.4044,0.392,0.3924,0.3926,0.4197,0.4202,0.4208,0,0,0,0,0,0,0.356,0.3571,0.3682,0.368,0.3686,0.3689,0.3699,0.374,0.3793,0.3746,0.375,0.3763,0.3853,0.3866,0.3874,0.3936,0.3915,0.3919,0.3922,0.3924,0.4201,0.4206,0,0,0,0,0,0,0.3565,0.3575,0.3679,0.3683,0.3688,0.375,0.3726,0.3803,0.378,0.3743,0.378,0.3781,0.3851,0.3858,0.3871,0.3929,0.3934,0.3915,0.3918,0.392,0.3921,0,0,0,0,0,0,0,0.357,0.35,0.365,0.3685,0.3689,0.3737,0.3738,0.3739,0.378,0.378,0.378,0.378,0.3893,0.3897,0.3902,0.3924,0,0,0.3915,0.3917,0,0,0,0,0,0,0,0,0.3497,0.35,0.365,0.3652,0.3653,0.3737,0.3738,0.3739,0.378,0.378,0.378,0.378,0.3894,0.3898,0.3901,0,0,0,0,0,0,0,0,0,0,0,0,0,0,0,0.3651,0.3652,0,0.3737,0.3738,0.3739,0.378,0.378,0.378,0.378,0.3895,0.3898,0.3901,0,0,0,0,0,0,0,0,0,0,0,0,0,0,0,0,0,0,0,0,0,0,0,0,0,0,0,0,0,0,0,0,0,0,0,0,0,0,0,0,0,0,0,0,0,0,0,0,0,0,0,0,0,0,0,0,0,0,0,0,0,0,0,0,0,0,0,0,0]}],[{"header":{"parameterUnit":"kt","parameterCategory":2,"dx":1,"dy":1,"la1":30.253999710083008,"la2":30.299108505249023,"lo1":-89.0895004272461,"lo2":-89.04439544677734,"nx":28,"ny":28,"refTime":"2022-10-14T21:00:00:Z","depth":"2","parameterNumber":3,"parameterNumberName":"V-component_of_CURRENTS"},"data":[0.0575,0.0707,0.078,0.1092,0.1272,0.1573,0.1753,0.1956,0.2059,0.1998,0.1898,0.1615,0.0943,0.0443,-0.0207,-0.0592,-0.0652,-0.0646,-0.072,-0.0489,-0.0478,-0.0939,-0.0764,0,0,0,0,0,0.0531,0.0623,0.077,0.0984,0.1179,0.1277,0.1568,0.1723,0.1933,0.1944,0.1886,0.1358,0.0796,0.0215,-0.0515,-0.0997,-0.0976,-0.1113,-0.0984,-0.098,-0.0977,-0.0868,-0.1012,-0.1013,-0.1013,-0.1013,0,0,0.0471,0.0542,0.0663,0.0831,0.1004,0.1227,0.1395,0.1577,0.1769,0.1883,0.1735,0.1559,0.1031,0.0137,-0.0417,-0.0904,-0.0938,-0.1094,-0.1087,-0.1081,-0.0984,-0.0931,-0.1154,-0.1155,-0.1156,-0.1157,-0.1157,0,0.0429,0.0478,0.0556,0.0732,0.0873,0.1047,0.1232,0.1368,0.1514,0.1601,0.163,0.1498,0.0943,0.0425,-0.0278,-0.0649,-0.083,-0.0974,-0.0971,-0.0783,-0.0725,-0.0773,-0.0755,-0.0925,-0.0925,-0.0924,-0.0924,-0.0924,0.0392,0.0435,0.0568,0.0655,0.0706,0.0854,0.0976,0.1101,0.1239,0.1335,0.141,0.1219,0.106,0.0404,-0.0084,-0.0682,-0.0745,-0.0949,-0.0923,-0.0863,-0.0919,-0.0896,-0.0875,-0.0921,-0.0921,-0.0922,-0.0922,0,0.0377,0.0411,0.0498,0.0588,0.0637,0.0728,0.0904,0.1014,0.1086,0.122,0.1246,0.1179,0.0884,0.0509,0.0053,-0.0209,-0.0614,-0.078,-0.0642,-0.0699,-0.0869,-0.0851,-0.1084,-0.1088,-0.109,-0.1093,-0.1095,0,0.0345,0.0405,0.0462,0.0494,0.0617,0.0628,0.077,0.081,0.0904,0.1009,0.0922,0.0957,0.0663,0.0435,0.0097,-0.0293,-0.0286,-0.0591,-0.0671,-0.0571,-0.0566,-0.0561,-0.0553,-0.0604,-0.0601,-0.0599,-0.0597,0,0.0285,0.0354,0.0422,0.0436,0.0487,0.0542,0.059,0.0633,0.0717,0.0745,0.0805,0.0675,0.0661,0.0368,0.0066,0.0073,-0.0292,-0.0331,-0.0592,-0.0598,-0.0618,-0.0621,-0.0595,-0.0594,-0.0594,-0.0593,-0.0592,0,0.0226,0.0252,0.0331,0.0385,0.0399,0.0447,0.0517,0.0565,0.0582,0.0607,0.0594,0.0544,0.0459,0.037,0.008,0.0166,-0.0054,-0.0209,-0.0224,-0.0308,-0.0383,-0.0546,-0.0558,-0.0433,-0.0431,-0.0428,-0.0426,0,0.0164,0.0217,0.0186,0.0269,0.0292,0.0266,0.0324,0.0334,0.0351,0.0395,0.0321,0.0361,0.0271,0.0293,0.0187,0.0038,-0.0087,0.0034,-0.0309,-0.0319,-0.0364,-0.0363,-0.0274,-0.0517,-0.0395,-0.0398,-0.04,0,0.0081,0.0066,0.0078,0.0098,0.0081,0.0091,0.0148,0.0159,0.021,0.0207,0.0256,0.024,0.0206,0.0193,0.0141,0.0055,-0.0045,-0.0019,-0.0028,-0.0151,-0.0289,-0.0319,-0.0344,-0.0088,-0.009,-0.0092,-0.0375,0,-0.0018,-0.0006,0.0016,-0.0005,0.0001,0.0028,-0.001,0.0029,0.0036,0.0018,0.0064,0.0027,0.0034,0.003,-0.0002,-0.0017,-0.0075,-0.011,-0.0182,-0.013,-0.0261,-0.028,-0.0092,-0.0094,-0.0096,-0.0097,0,0,-0.0091,-0.0107,-0.0175,-0.0161,-0.0158,-0.0218,-0.0182,-0.0181,-0.0178,-0.016,-0.0161,-0.0138,-0.0154,-0.0136,-0.0103,-0.0109,-0.019,-0.0102,-0.0133,-0.0136,-0.0139,-0.0261,-0.0277,-0.0101,-0.0102,-0.0102,-0.0103,0,-0.017,-0.0206,-0.0191,-0.0209,-0.0238,-0.027,-0.0256,-0.0287,-0.0272,-0.0219,-0.0258,-0.0243,-0.0197,-0.0223,-0.0231,-0.0138,-0.0241,-0.0117,-0.0042,-0.0146,-0.0146,-0.0147,-0.0266,-0.0279,-0.0108,-0.0107,-0.0107,0,-0.0261,-0.0313,-0.0316,-0.0366,-0.0381,-0.0371,-0.0436,-0.0415,-0.0388,-0.0444,-0.0359,-0.0371,-0.0392,-0.0336,-0.0308,-0.0337,-0.0313,-0.0266,-0.0257,-0.0259,-0.0372,-0.037,-0.0369,-0.0395,-0.0396,-0.0397,0,0,-0.0314,-0.0328,-0.0407,-0.0391,-0.04,-0.0444,-0.044,-0.0457,-0.0462,-0.0445,-0.0437,-0.0426,-0.0417,-0.0395,-0.0385,-0.0331,-0.0423,-0.0298,-0.0285,-0.0273,-0.0269,-0.0377,-0.0375,-0.0399,-0.0399,-0.0399,0,0,-0.0338,-0.0435,-0.0462,-0.0459,-0.0482,-0.0541,-0.0501,-0.0526,-0.0493,-0.0473,-0.0505,-0.0501,-0.0434,-0.0452,-0.0481,-0.0397,-0.0458,-0.0451,-0.0374,-0.0358,-0.0345,-0.0343,-0.0536,0,0,0,0,0,-0.0461,-0.0435,-0.0459,-0.0469,-0.0524,-0.0542,-0.0543,-0.0555,-0.056,-0.0523,-0.0513,-0.054,-0.0473,-0.0499,-0.0496,-0.0444,-0.043,-0.0425,-0.042,-0.0309,-0.0291,-0.0276,0,0,0,0,0,0,-0.0466,-0.048,-0.046,-0.0526,-0.0538,-0.0543,-0.0584,-0.0586,-0.0562,-0.056,-0.0544,-0.0542,-0.0564,-0.0502,-0.0499,-0.0449,-0.0537,-0.0428,-0.0423,-0.0419,-0.0302,-0.0288,-0.0276,0,0,0,0,0,-0.047,-0.0481,-0.0567,-0.0525,-0.0535,-0.0558,-0.0582,-0.0584,-0.0548,-0.0581,-0.0577,-0.0552,-0.0565,-0.0561,-0.0501,-0.045,-0.054,-0.0538,-0.0425,-0.0421,-0.0418,-0.0295,0,0,0,0,0,0,-0.0473,-0.047,-0.0569,-0.0572,-0.052,-0.0554,-0.0561,-0.0583,-0.0568,-0.0568,-0.0594,-0.0594,-0.0566,-0.0562,-0.0559,-0.0447,-0.0542,-0.054,-0.054,-0.0422,-0.0419,-0.0417,0,0,0,0,0,0,-0.0464,-0.0473,-0.057,-0.0564,-0.0566,-0.0551,-0.0557,-0.0546,-0.0566,-0.058,-0.0581,-0.0594,-0.056,-0.0563,-0.056,-0.0544,-0.0543,-0.0542,-0.0541,-0.054,-0.042,-0.0418,0,0,0,0,0,0,-0.0468,-0.0475,-0.0563,-0.0564,-0.0566,-0.0597,-0.0538,-0.0581,-0.0595,-0.0579,-0.0594,-0.0593,-0.056,-0.0558,-0.0562,-0.0546,-0.0544,-0.0543,-0.0542,-0.0542,-0.0541,0,0,0,0,0,0,0,-0.047,-0.0425,-0.0557,-0.0565,-0.0566,-0.0602,-0.0602,-0.0602,-0.0595,-0.0594,-0.0594,-0.0593,-0.055,-0.0548,-0.0547,-0.0548,0,0,-0.0543,-0.0542,0,0,0,0,0,0,0,0,-0.0422,-0.0424,-0.0558,-0.0559,-0.056,-0.0602,-0.0602,-0.0602,-0.0595,-0.0594,-0.0594,-0.0594,-0.0549,-0.0548,-0.0547,0,0,0,0,0,0,0,0,0,0,0,0,0,0,0,-0.0558,-0.0559,0,-0.0602,-0.0602,-0.0602,-0.0595,-0.0594,-0.0594,-0.0594,-0.0549,-0.0548,-0.0547,0,0,0,0,0,0,0,0,0,0,0,0,0,0,0,0,0,0,0,0,0,0,0,0,0,0,0,0,0,0,0,0,0,0,0,0,0,0,0,0,0,0,0,0,0,0,0,0,0,0,0,0,0,0,0,0,0,0,0,0,0,0,0,0,0,0,0,0,0]}]],[[{"header":{"parameterUnit":"kt","parameterCategory":2,"dx":1,"dy":1,"la1":30.253999710083008,"la2":30.299108505249023,"lo1":-89.0895004272461,"lo2":-89.04439544677734,"nx":28,"ny":28,"refTime":"2022-10-14T21:00:00:Z","depth":"4","parameterNumber":2,"parameterNumberName":"U-component_of_CURRENTS"},"data":[0.0846,0.0895,0.0935,0.0999,0.1064,0.1198,0.1323,0.1506,0.1574,0.1854,0.1898,0.2115,0.219,0.2343,0.23,0.232,0.2188,0.2523,0.2518,0.2374,0.2379,0.2384,0.2351,0,0,0,0,0,0.0911,0.0924,0.0993,0.1099,0.1227,0.1319,0.1529,0.165,0.192,0.2001,0.2152,0.2254,0.2333,0.241,0.2345,0.2493,0.2432,0.2403,0.2268,0.2378,0.2383,0.2349,0,0,0,0,0,0,0.0991,0.1004,0.11,0.121,0.1339,0.1443,0.1552,0.1729,0.1873,0.2228,0.2277,0.2472,0.264,0.2605,0.2589,0.2553,0.2469,0.2334,0.2342,0.2347,0.2313,0.2288,0.2252,0,0,0,0,0,0.107,0.1134,0.1203,0.1328,0.1444,0.1567,0.1755,0.1824,0.2092,0.2278,0.2454,0.2543,0.2638,0.2646,0.2646,0.2567,0.2569,0.2528,0.2527,0.2413,0.2402,0.2358,0.2354,0.2404,0.2405,0.2405,0.2406,0,0.1157,0.1196,0.1367,0.1428,0.1523,0.168,0.1783,0.2,0.2107,0.2406,0.2468,0.2668,0.2753,0.2699,0.2722,0.265,0.2595,0.2544,0.2423,0.2411,0.2366,0.236,0.2355,0.241,0.241,0.241,0.2409,0,0.1199,0.1303,0.1391,0.1568,0.1638,0.1721,0.1946,0.2033,0.2218,0.2377,0.2459,0.2631,0.2716,0.2742,0.2746,0.2628,0.2583,0.2539,0.2611,0.2568,0.2367,0.236,0.2418,0.2416,0.2415,0.2413,0.2412,0,0.1293,0.1356,0.1523,0.156,0.167,0.1805,0.1934,0.2037,0.2209,0.233,0.2457,0.2542,0.26,0.2654,0.2607,0.2558,0.2608,0.2445,0.2406,0.2429,0.2422,0.24,0.2388,0.25,0.2499,0.2499,0.2499,0,0.1326,0.1463,0.1538,0.1581,0.1735,0.1812,0.1909,0.2052,0.2144,0.2313,0.2402,0.2478,0.2559,0.254,0.2562,0.2518,0.2579,0.2492,0.2396,0.239,0.2394,0.2383,0.2499,0.2499,0.2499,0.2499,0.2499,0,0.1401,0.147,0.1559,0.1695,0.173,0.1796,0.1932,0.2012,0.2154,0.2226,0.2315,0.2374,0.2467,0.2426,0.2457,0.2439,0.2413,0.2398,0.2396,0.2321,0.2227,0.2228,0.2336,0.2335,0.2334,0.2333,0.2332,0,0.1407,0.1495,0.1563,0.165,0.1705,0.1787,0.1863,0.1953,0.2039,0.2142,0.2193,0.2282,0.2257,0.2308,0.2326,0.2332,0.2349,0.2319,0.2271,0.227,0.2203,0.229,0.2292,0.2317,0.2319,0.232,0.2321,0,0.1398,0.1528,0.1538,0.1594,0.1689,0.1723,0.181,0.1898,0.1971,0.2045,0.2139,0.2186,0.2221,0.2227,0.2219,0.2249,0.2321,0.222,0.2218,0.2221,0.2338,0.2277,0.228,0.2281,0.2284,0.2285,0.231,0,0.1447,0.1506,0.1533,0.161,0.1656,0.1702,0.1766,0.1829,0.1896,0.1943,0.2028,0.2041,0.2088,0.2094,0.2092,0.2159,0.213,0.2086,0.2047,0.2122,0.212,0.2129,0.2,0.1998,0.1997,0.1996,0,0,0.1423,0.1474,0.1521,0.1567,0.1606,0.1654,0.17,0.1743,0.1809,0.1856,0.1869,0.1936,0.1942,0.198,0.2024,0.2004,0.1998,0.2011,0.2083,0.2093,0.2102,0.2105,0.2115,0.1993,0.1993,0.1992,0.1992,0,0.142,0.1471,0.1508,0.1545,0.1609,0.163,0.1659,0.1715,0.1762,0.1825,0.1824,0.1873,0.1894,0.1904,0.1905,0.1979,0.1941,0.1976,0.2065,0.207,0.2082,0.2092,0.2097,0.2107,0.1988,0.1989,0.1989,0,0.1413,0.1448,0.1468,0.1524,0.1558,0.1596,0.1609,0.1663,0.1705,0.169,0.1772,0.1777,0.1769,0.1809,0.183,0.1811,0.1891,0.1861,0.1868,0.1893,0.1897,0.1911,0.1923,0.1762,0.1761,0.1761,0,0,0.1414,0.1452,0.149,0.1522,0.1549,0.1587,0.1614,0.1642,0.1674,0.1699,0.1722,0.1743,0.1752,0.1772,0.1772,0.1808,0.1797,0.1835,0.1845,0.1854,0.1884,0.189,0.1904,0.1759,0.1759,0.1758,0,0,0.1403,0.1451,0.1473,0.1513,0.1547,0.1567,0.1603,0.1631,0.1676,0.1697,0.169,0.1694,0.1743,0.173,0.1704,0.1768,0.1722,0.1727,0.1781,0.1794,0.1805,0.1839,0.1662,0,0,0,0,0,0.1415,0.1441,0.1461,0.1472,0.1524,0.1554,0.1561,0.1602,0.1633,0.1662,0.169,0.1668,0.1718,0.1694,0.1693,0.1731,0.173,0.1735,0.174,0.1817,0.1831,0.1842,0,0,0,0,0,0,0.1419,0.143,0.146,0.1478,0.1491,0.1552,0.156,0.157,0.1631,0.1639,0.1664,0.1666,0.1648,0.1693,0.1692,0.173,0.1662,0.1732,0.1736,0.174,0.1821,0.1833,0.1843,0,0,0,0,0,0.1422,0.1431,0.1511,0.1478,0.1489,0.1542,0.1561,0.157,0.163,0.1615,0.1622,0.1667,0.1646,0.1648,0.1692,0.1731,0.1663,0.1662,0.1735,0.1738,0.1741,0.1827,0,0,0,0,0,0,0.1425,0.1434,0.1514,0.1518,0.1491,0.1542,0.1552,0.157,0.1604,0.1611,0.1611,0.1615,0.1645,0.1647,0.1648,0.1734,0.1663,0.1663,0.1663,0.1737,0.174,0.1742,0,0,0,0,0,0,0.1429,0.1437,0.1516,0.1529,0.1535,0.1541,0.155,0.1543,0.1602,0.1597,0.1602,0.1612,0.1638,0.1645,0.1646,0.1633,0.1663,0.1663,0.1663,0.1663,0.174,0.1742,0,0,0,0,0,0,0.1433,0.144,0.1528,0.1533,0.1538,0.1589,0.1534,0.1583,0.1628,0.1593,0.1633,0.1634,0.1636,0.1638,0.1645,0.1631,0.1633,0.1663,0.1663,0.1663,0.1663,0,0,0,0,0,0,0,0.1436,0.1384,0.149,0.1536,0.1541,0.1559,0.156,0.1561,0.1629,0.163,0.1632,0.1634,0.1664,0.1664,0.1664,0.163,0,0,0.1663,0.1663,0,0,0,0,0,0,0,0,0.1382,0.1384,0.149,0.1491,0.1492,0.1559,0.156,0.1561,0.1629,0.163,0.1632,0.1633,0.1664,0.1664,0.1664,0,0,0,0,0,0,0,0,0,0,0,0,0,0,0,0.149,0.1491,0,0.1559,0.156,0.1561,0.1629,0.163,0.1631,0.1633,0.1664,0.1664,0.1664,0,0,0,0,0,0,0,0,0,0,0,0,0,0,0,0,0,0,0,0,0,0,0,0,0,0,0,0,0,0,0,0,0,0,0,0,0,0,0,0,0,0,0,0,0,0,0,0,0,0,0,0,0,0,0,0,0,0,0,0,0,0,0,0,0,0,0,0,0]}],[{"header":{"parameterUnit":"kt","parameterCategory":2,"dx":1,"dy":1,"la1":30.253999710083008,"la2":30.299108505249023,"lo1":-89.0895004272461,"lo2":-89.04439544677734,"nx":28,"ny":28,"refTime":"2022-10-14T21:00:00:Z","depth":"4","parameterNumber":3,"parameterNumberName":"V-component_of_CURRENTS"},"data":[0.0266,0.0348,0.0394,0.0522,0.0596,0.0685,0.073,0.0727,0.0727,0.0681,0.0487,0.039,0.002,0.017,-0.0343,-0.042,-0.0519,-0.094,-0.0943,-0.1109,-0.1112,-0.1114,-0.103,0,0,0,0,0,0.0247,0.0301,0.0389,0.0482,0.0562,0.0609,0.0677,0.0684,0.0666,0.0662,0.061,0.0405,0.0046,-0.0135,-0.0349,-0.05,-0.0829,-0.0755,-0.0887,-0.1111,-0.1114,-0.1031,0,0,0,0,0,0,0.0208,0.0256,0.0315,0.0406,0.0483,0.0563,0.0585,0.0613,0.0625,0.0559,0.0538,0.0267,0.0093,-0.0252,-0.049,-0.0719,-0.0764,-0.0802,-0.0821,-0.0827,-0.0715,-0.059,-0.0582,0,0,0,0,0,0.0165,0.0181,0.0232,0.0327,0.038,0.0453,0.0501,0.053,0.0506,0.0461,0.0401,0.02,-0.0029,-0.0342,-0.0598,-0.0825,-0.1056,-0.1098,-0.1101,-0.1087,-0.1025,-0.1027,-0.1017,-0.1125,-0.1126,-0.1126,-0.1126,0,0.0107,0.0135,0.02,0.0247,0.0266,0.0312,0.0344,0.0322,0.0344,0.0276,0.0282,0.0079,-0.006,-0.0396,-0.0677,-0.0996,-0.1025,-0.1105,-0.109,-0.1028,-0.1033,-0.1021,-0.1009,-0.1128,-0.1128,-0.1128,-0.1128,0,0.008,0.0086,0.0142,0.0168,0.0184,0.0218,0.0249,0.0256,0.0201,0.0193,0.0164,-0.0013,-0.0219,-0.047,-0.0747,-0.085,-0.1042,-0.1083,-0.1026,-0.1035,-0.1021,-0.1008,-0.1132,-0.1132,-0.1131,-0.113,-0.113,0,0.004,0.0069,0.009,0.0113,0.0161,0.014,0.0159,0.0133,0.008,0.0081,-0.0077,-0.0122,-0.0389,-0.0547,-0.0713,-0.0888,-0.0935,-0.0991,-0.1008,-0.0984,-0.0972,-0.1028,-0.102,-0.1091,-0.109,-0.1089,-0.1088,0,0.0009,0.0036,0.0069,0.0076,0.0091,0.0091,0.009,0.003,0.0027,-0.0087,-0.0112,-0.0292,-0.037,-0.0538,-0.0719,-0.071,-0.0939,-0.0945,-0.0976,-0.0972,-0.102,-0.1014,-0.1087,-0.1087,-0.1087,-0.1087,-0.1086,0,-0.0023,0.0001,0.0029,0.0058,0.0059,0.006,0.004,0.0022,-0.0072,-0.0116,-0.022,-0.0311,-0.0448,-0.0484,-0.0697,-0.0645,-0.0737,-0.0821,-0.0827,-0.0816,-0.0802,-0.0817,-0.0873,-0.0871,-0.0869,-0.0867,-0.0865,0,-0.0035,-0.0008,-0.0017,0.0006,0.0022,-0.0008,-0.0022,-0.0063,-0.0114,-0.0175,-0.029,-0.0364,-0.0423,-0.0465,-0.055,-0.0671,-0.0732,-0.0662,-0.0827,-0.0832,-0.0757,-0.0801,-0.0732,-0.0839,-0.0843,-0.0845,-0.0847,0,-0.0049,-0.0038,-0.0039,-0.0024,-0.0044,-0.0043,-0.0068,-0.0105,-0.0126,-0.0207,-0.026,-0.0377,-0.0435,-0.0486,-0.0549,-0.062,-0.0693,-0.0648,-0.0653,-0.0663,-0.0834,-0.0776,-0.0785,-0.0718,-0.0721,-0.0723,-0.0829,0,-0.0055,-0.0049,-0.0046,-0.0052,-0.0062,-0.0064,-0.0098,-0.0123,-0.0159,-0.0202,-0.0293,-0.038,-0.0469,-0.0499,-0.0535,-0.062,-0.0624,-0.0644,-0.0644,-0.0673,-0.0714,-0.0728,-0.0581,-0.0582,-0.0583,-0.0583,0,0,-0.0067,-0.0062,-0.008,-0.0079,-0.0084,-0.0121,-0.012,-0.015,-0.0208,-0.0237,-0.0255,-0.0401,-0.0457,-0.0537,-0.0554,-0.0577,-0.0613,-0.0567,-0.0656,-0.0664,-0.0671,-0.0711,-0.0723,-0.0585,-0.0585,-0.0586,-0.0586,0,-0.007,-0.0078,-0.0076,-0.0088,-0.0111,-0.0129,-0.0134,-0.0174,-0.0202,-0.0245,-0.0305,-0.0376,-0.0445,-0.0507,-0.0544,-0.058,-0.0616,-0.0595,-0.0585,-0.066,-0.0667,-0.0673,-0.0712,-0.0723,-0.0588,-0.0588,-0.0588,0,-0.0083,-0.0091,-0.0094,-0.0112,-0.0133,-0.0141,-0.0174,-0.0191,-0.0207,-0.0268,-0.0313,-0.0373,-0.0445,-0.0495,-0.0525,-0.0524,-0.0617,-0.0579,-0.0577,-0.0595,-0.0674,-0.0681,-0.0688,-0.0604,-0.0603,-0.0603,0,0,-0.0087,-0.0086,-0.0114,-0.0116,-0.0125,-0.0162,-0.0177,-0.0199,-0.024,-0.0262,-0.0311,-0.0373,-0.0431,-0.0458,-0.0514,-0.0551,-0.0598,-0.0576,-0.0575,-0.0574,-0.059,-0.067,-0.0677,-0.0601,-0.0601,-0.0601,0,0,-0.0094,-0.0112,-0.0126,-0.0128,-0.0152,-0.0187,-0.0196,-0.0221,-0.0268,-0.0277,-0.0332,-0.0348,-0.0407,-0.0443,-0.0414,-0.0509,-0.0521,-0.0527,-0.0462,-0.0462,-0.0461,-0.0465,-0.0437,0,0,0,0,0,-0.0112,-0.0106,-0.0118,-0.0122,-0.0155,-0.0177,-0.0184,-0.022,-0.0239,-0.0247,-0.0301,-0.032,-0.0447,-0.0422,-0.0434,-0.0446,-0.0578,-0.0582,-0.0586,-0.0514,-0.0514,-0.0513,0,0,0,0,0,0,-0.0114,-0.0117,-0.0118,-0.0149,-0.0157,-0.0177,-0.0203,-0.0213,-0.0239,-0.0245,-0.031,-0.0322,-0.0356,-0.0418,-0.0428,-0.0438,-0.0434,-0.058,-0.0583,-0.0586,-0.0514,-0.0513,-0.0513,0,0,0,0,0,-0.0115,-0.0118,-0.0159,-0.015,-0.0157,-0.0203,-0.0204,-0.0213,-0.0238,-0.0291,-0.0304,-0.0265,-0.0354,-0.0367,-0.0424,-0.0433,-0.0427,-0.0431,-0.0582,-0.0585,-0.0587,-0.0514,0,0,0,0,0,0,-0.0116,-0.0131,-0.0162,-0.0166,-0.0156,-0.0204,-0.0211,-0.0212,-0.0284,-0.0295,-0.0248,-0.0251,-0.0353,-0.0363,-0.0373,-0.0429,-0.0421,-0.0425,-0.0427,-0.0584,-0.0586,-0.0588,0,0,0,0,0,0,-0.013,-0.0134,-0.0164,-0.0169,-0.0174,-0.0204,-0.021,-0.0247,-0.0286,-0.0238,-0.0242,-0.0249,-0.0348,-0.036,-0.0368,-0.0424,-0.0416,-0.042,-0.0423,-0.0424,-0.0586,-0.0588,0,0,0,0,0,0,-0.0133,-0.0137,-0.0168,-0.0172,-0.0177,-0.0229,-0.024,-0.0279,-0.0268,-0.0235,-0.027,-0.0271,-0.0345,-0.0353,-0.0365,-0.0417,-0.0423,-0.0417,-0.0419,-0.0421,-0.0422,0,0,0,0,0,0,0,-0.0135,-0.0096,-0.0135,-0.0175,-0.0179,-0.0206,-0.0207,-0.0208,-0.0268,-0.0269,-0.027,-0.0271,-0.0395,-0.0399,-0.0403,-0.0411,0,0,-0.0416,-0.0418,0,0,0,0,0,0,0,0,-0.0096,-0.0096,-0.0135,-0.0136,-0.0137,-0.0206,-0.0207,-0.0208,-0.0268,-0.0269,-0.027,-0.0271,-0.0396,-0.0399,-0.0403,0,0,0,0,0,0,0,0,0,0,0,0,0,0,0,-0.0135,-0.0136,0,-0.0206,-0.0207,-0.0208,-0.0268,-0.0269,-0.027,-0.027,-0.0397,-0.04,-0.0403,0,0,0,0,0,0,0,0,0,0,0,0,0,0,0,0,0,0,0,0,0,0,0,0,0,0,0,0,0,0,0,0,0,0,0,0,0,0,0,0,0,0,0,0,0,0,0,0,0,0,0,0,0,0,0,0,0,0,0,0,0,0,0,0,0,0,0,0,0]}]]]